OpenBCM V1.08-5-g2f4a (Linux)

Packet Radio Mailbox

IZ3LSV

[San Dona' di P. JN]

 Login: GUEST





  
I0OJJ  > KEPS     17.04.25 02:25l 355 Lines 16924 Bytes #28 (0) @ AMSAT
BID : ORB25107.1
Read: GUEST
Subj: 2Line Orbital Elements 25107.AMSAT
Path: IZ3LSV<I0OJJ
Sent: 250417/0025z @:I0OJJ.ITA.EU [Rome] obcm1.08-6-g5b69
From: I0OJJ @ I0OJJ.ITA.EU (Gustavo)
To:   KEPS @ AMSAT
X-Info: This message was generated automatically


QST de W1STR

AMSAT Orbital Elements for Amateur Satellites in TLE Format
From Orbital Analysis Office
New England Sci-Tech STEM Education Center
Natick, MA April 17, 2025
To all radio amateurs


These element sets describe the orbits of various satellites 
in use by the amateur radio community. For details see:
www.amsat.org/keplerian-elements-formats/

A daily update of element sets is available at:
www.amsat.org/tle/daily-bulletin.txt
or without bulletin text:
www.amsat.org/tle/dailytle.txt


AO-07
1 07530U 74089B   25106.80693131 -.00000048  00000-0 -97727-5 0  9999
2 07530 101.9952 110.4959 0011959 223.4413 310.6545 12.53688285307324
UO-11
1 14781U 84021B   25106.85134479  .00005766  00000-0  61539-3 0  9992
2 14781  97.7503  74.3067 0008666 144.0357 216.1445 14.89177372214640
AO-27
1 22825U 93061C   25106.09094049  .00000288  00000-0  12733-3 0  9994
2 22825  98.7415 167.3624 0007259 272.5520  87.4832 14.30775441645924
FO-29
1 24278U 96046B   25106.48433148  .00000033  00000-0  66674-4 0  9996
2 24278  98.5814   7.4856 0350764 122.6593 240.8900 13.53244073415457
NOAA-15
1 25338U 98030A   25106.81995687  .00000667  00000-0  29175-3 0  9994
2 25338  98.5405 133.2332 0010924 151.2996 208.8788 14.26945332400734
GO-32
1 25397U 98043D   25106.45963565  .00000249  00000-0  12800-3 0  9996
2 25397  98.9672  84.4609 0001800  41.9685 318.1631 14.24296118390588
ISS
1 25544U 98067A   25106.89714325  .00014629  00000-0  26738-3 0  9994
2 25544  51.6389 250.5995 0005286  50.9367  87.0880 15.49609610505653
NO-44
1 26931U 01043C   25106.57654691  .00000501  00000-0  21853-3 0  9994
2 26931  67.0498 267.4621 0005576 270.6539  89.3924 14.31697833229373
SO-50
1 27607U 02058C   25106.82222487  .00005596  00000-0  71527-3 0  9996
2 27607  64.5560   6.4518 0049889 346.8349  13.1450 14.81441666201478
CO-55
1 27844U 03031E   25106.29402237  .00000818  00000-0  37551-3 0  9996
2 27844  98.6785 115.2647 0009382 352.9190   7.1854 14.23940154130919
CO-57
1 27848U 03031J   25106.28750490  .00000692  00000-0  32470-3 0  9991
2 27848  98.6812 115.3046 0009646  10.1977 349.9396 14.23282680130648
RS-22
1 27939U 03042A   25106.85819189  .00005215  00000-0  83464-3 0  9993
2 27939  98.3237 275.0299 0011719 174.5492 322.0038 14.72174237152924
NOAA-18
1 28654U 05018A   25106.82842345  .00000679  00000-0  38352-3 0  9995
2 28654  98.8427 186.9077 0013061 282.2511  77.7199 14.13578685 26157
CO-58
1 28895U 05043F   25106.36971299  .00004641  00000-0  76748-3 0  9994
2 28895  98.2411 250.0752 0015788 118.0445 242.2360 14.70755750 38979
CO-65
1 32785U 08021C   25106.45352588  .00012382  00000-0  90583-3 0  9994
2 32785  97.7829  77.2563 0011363  44.2646 315.9486 15.03692054920944
AAUSAT2
1 32788U 08021F   25106.44873994  .00341768  00000-0  26090-2 0  9999
2 32788  97.6002 102.2047 0009020 132.0379 228.1652 15.71143492924958
CO-66
1 32791U 08021J   25106.45290811  .00027987  00000-0  14144-2 0  9996
2 32791  97.7261  85.3593 0004671  33.3824 326.7702 15.17020223922283
RS-30
1 32953U 08025A   25106.88335277  .00000051  00000-0  29337-3 0  9997
2 32953  82.4993 260.5726 0019995 160.7997 199.3840 12.43162541766865
NOAA-19
1 33591U 09005A   25106.82612299  .00000652  00000-0  37103-3 0  9998
2 33591  99.0011 171.2201 0014411 152.2966 207.8977 14.13343595834518
SRMSAT
1 37841U 11058D   25106.74383260  .00000592  00000-0  17818-3 0  9999
2 37841  19.9707 120.3269 0011700 191.7437 324.4047 14.11412238697713
ZACUBE-1
1 39417U 13066B   25106.82273237  .00010067  00000-0  88530-3 0  9999
2 39417  97.7763  64.1614 0042973 229.8415 129.9040 14.96014576616879
Delfi-N3xt
1 39428U 13066N   25106.76272363  .00011830  00000-0  12254-2 0  9991
2 39428  97.8359  25.0534 0086227 176.4626 183.7219 14.87428484611251
GOMX-1
1 39430U 13066Q   25106.82600772  .00008794  00000-0  13675-2 0  9993
2 39430  97.6900 328.7766 0133220   5.1596 355.0946 14.67394176607528
LO-74
1 39440U 13066AA  25106.80868660  .00010451  00000-0  10660-2 0  9998
2 39440  97.8464  51.7734 0062886 359.4733   0.6407 14.89359658614636
AO-73
1 39444U 13066AE  25106.84787416  .00033080  00000-0  25182-2 0  9993
2 39444  97.7713  68.6164 0040382 206.4613 153.4550 15.01354125616115
DTUSAT-2
1 40030U 14033W   25106.87079370  .00033559  00000-0  22154-2 0  9994
2 40030  98.0512  76.1427 0007554 235.4665 124.5849 15.07332044588815
EO-80
1 40032U 14033Y   25106.89373634  .00031941  00000-0  21047-2 0  9991
2 40032  98.0408  75.8966 0008895 166.1718 193.9753 15.07402410588801
LILACSAT-2
1 40908U 15049K   25106.87714269  .00048143  00000-0  13061-2 0  9991
2 40908  97.5107 125.9691 0009173   6.6945 353.4420 15.37422938529972
IO-86
1 40931U 15052B   25038.81889873  .00001817  00000-0  15548-3 0  9993
2 40931   6.0001 108.1159 0012838 187.7041 172.2889 14.78568669506492
Horyu-4
1 41340U 16012D   25106.46434587  .00034453  00000-0  10085-2 0  9992
2 41340  30.9951 135.1599 0008752 213.4626 146.5466 15.33991744504467
Lapan A3
1 41603U 16040E   25106.85884247  .00013469  00000-0  47371-3 0  9993
2 41603  97.1391 113.5873 0013193  99.9431 260.3299 15.29379891489574
CAS-2T
1 41847U 16066G   25106.47282833  .00002112  00000-0  30987-3 0  9990
2 41847  98.4215 181.4007 0346242 342.3869  16.5553 14.43332959443214
CAS-4B
1 42759U 17034B   25106.87470796  .00206591  00000-0  27885-2 0  9999
2 42759  43.0092 280.3371 0019949 276.3113  83.5477 15.56109048434213
CAS-4A
1 42761U 17034D   25106.81578799  .00192837  00000-0  25277-2 0  9998
2 42761  43.0127 278.3198 0021328 280.4223  79.4236 15.56909005434220
TechnoSat
1 42829U 17042E   25106.73208461  .00007096  00000-0  55462-3 0  9991
2 42829  97.3929 278.0169 0015404 100.6996 259.5964 15.01280449422646
AO-91
1 43017U 17073E   25106.57952751  .00016192  00000-0  84359-3 0  9999
2 43017  97.5329 338.7286 0175333 351.0587   8.7526 15.03665252401097
S-Net D
1 43186U 18014G   25106.61209472  .00010718  00000-0  64204-3 0  9997
2 43186  97.5665  10.0817 0010794  56.9515 303.2750 15.11125394394223
S-Net B
1 43187U 18014H   25106.68303377  .00010618  00000-0  63633-3 0  9998
2 43187  97.5668  10.1208 0011382  52.2339 307.9920 15.11107904394237
S-Net A
1 43188U 18014J   25106.48023092  .00010538  00000-0  63123-3 0  9995
2 43188  97.5677  10.0634 0011294  53.6929 306.5342 15.11127524394202
S-Net C
1 43189U 18014K   25106.48666414  .00010305  00000-0  61761-3 0  9995
2 43189  97.5691  10.0745 0012684  46.2307 313.9970 15.11100539392758
Ten-Koh
1 43677U 18084G   25106.44480226  .00005849  00000-0  47206-3 0  9990
2 43677  98.0937 276.5468 0009541 101.5363 258.6931 15.00235813352126
PO-101
1 43678U 18084H   25106.82435176  .00009487  00000-0  80714-3 0  9990
2 43678  98.1003 280.9149 0010047 106.1792 254.0535 14.98010664352331
QO-100
1 43700U 18090A   25106.86363456  .00000155  00000-0  00000+0 0  9997
2 43700   0.0137 252.0642 0002116 175.8900 114.0424  1.00275506 23645
MinXSS-2
1 43758U 18099A   25106.45246844  .00033786  00000-0  14044-2 0  9997
2 43758  97.5056 172.3765 0011080 352.3349   7.7716 15.23664655348726
AO-95
1 43770U 18099N   25106.08762728  .00016606  00000-0  86555-3 0  9993
2 43770  97.4968 164.8046 0011725  49.8960 310.3298 15.15991714348292
RANGE-A
1 43773U 18099R   25106.55057464  .00009574  00000-0  61732-3 0  9998
2 43773  97.4535 156.5232 0011789  25.4501 334.7306 15.08451108348077
MOVE-II
1 43780U 18099Y   25106.72624979  .00172680  00000-0  23697-2 0  9992
2 43780  97.4693 179.0658 0002351 260.0652 100.0337 15.56739242349374
SNUSat 2
1 43782U 18099AA  25106.41668533  .00017185  00000-0  95864-3 0  9998
2 43782  97.4654 162.3135 0011387 348.7331  11.3643 15.13574465348308
SnugLite
1 43784U 18099AC  25106.59121844  .00016492  00000-0  85326-3 0  9990
2 43784  97.4462 161.9440 0002889  12.9892 347.1415 15.16309840348459
ITASat 1
1 43786U 18099AE  25106.56330298  .00012716  00000-0  74025-3 0  9993
2 43786  97.4619 162.1202 0015193  39.1024 321.1301 15.12066234348295
EAGLET 1
1 43790U 18099AJ  25106.56628393  .00008918  00000-0  57492-3 0  9992
2 43790  97.4815 162.2468 0012433  22.0846 338.0916 15.08474066347929
ESEO
1 43792U 18099AL  25106.59090556  .00003559  00000-0  27300-3 0  9992
2 43792  97.4548 156.2465 0011464   2.0937 358.0334 15.02364227347710
CSIM
1 43793U 18099AM  25106.76250406  .00164901  00000-0  22431-2 0  9992
2 43793  97.4875 181.2721 0005192 278.2485  81.8181 15.56994881349226
JO-97
1 43803U 18099AX  25106.60827732  .00020223  00000-0  95894-3 0  9991
2 43803  97.4710 166.2066 0006438 343.8959  16.2070 15.19301947348570
Suomi 100
1 43804U 18099AY  25106.73755944  .00017186  00000-0  86707-3 0  9998
2 43804  97.4774 165.7749 0011519 341.7326  18.3492 15.17134250348530
ISAT
1 43879U 18111D   25106.69230418  .00035039  00000-0  13042-2 0  9992
2 43879  97.5988  19.9829 0010883  41.0556 319.1499 15.27350509343449
UWE-4
1 43880U 18111E   25106.27734922  .00032846  00000-0  13552-2 0  9996
2 43880  97.5931  18.3960 0014383  49.0961 311.1519 15.23884419345350
Sparrow
1 43881U 18111F   25106.71507321  .00036284  00000-0  13070-2 0  9992
2 43881  97.6121  22.6846 0009988  74.1751 286.0588 15.28431044343558
Prox-1
1 44339U 19036A   25106.52083043  .00021790  00000-0  28729-2 0  9990
2 44339  23.9972  56.5561 0007307 176.8887 183.1656 14.78567165310001
SONATE
1 44400U 19038Q   25106.52224675  .00156880  00000-0  11321-2 0  9998
2 44400  97.6993 127.0455 0009545 100.6502 259.5836 15.73001703321021
Taurus 1
1 44530U 19059C   25106.85493038  .00042211  00000-0  78461-2 0  9992
2 44530  98.6004 243.7504 0010585 196.7717 163.3136 14.64925749296075
